Location: Góry Miechowskie
(50.3599°N, 20.1803°E)
Time: 03:58:18
(UTC+00:00)

Cosmos 2228 - Pass Details

Date: 23 September 2024
Orbit: 574 x 600 km, 82.5° (Epoch: 11 October)

Event Time Altitude Azimuth Distance (km) Brightness Sun altitude
Exits shadow 00:20:56 20° 30° (NNE) 1,423 5.5 -34.7°
Drops below altitude 10° 00:22:22 10° 22° (NNE) 1,952 6.4 -34.6°
Sets 00:24:40 0° 16° (NNE) 2,864 7.4 -34.4°
